Location: Home AU
(51.1382°N, 13.5726°E)
Time: 08:12:22
(UTC+01:00)

ISS - Pass Details

Date: 04 January 2018
Orbit: 401 x 406 km, 51.6° (Epoch: 17 January)

Event Time Altitude Azimuth Distance (km) Brightness Sun altitude
Exits shadow 06:56:02 16° 274° (W) 1,172 -2.1 -10.8°
Maximum altitude 06:58:35 79° 359° (N) 419 -3.9 -10.4°
Drops below altitude 10° 07:01:54 10° 88° (E) 1,469 0.1 -9.9°
Sets 07:03:59 0° 90° (E) 2,331 1.4 -9.6°
